Location: Recife
(8.0585°S, 34.8848°W)
Time: 13:16:40
(UTC-03:00)

Vanguard 2 - Pass Details

Date: 19 April 2026
Orbit: 553 x 2895 km, 32.9° (Epoch: 13 May)

Event Time Altitude Azimuth Distance (km) Brightness Sun altitude
Rises 22:06:46 0° 258° (WSW) 5,705 12.2 -72.0°
Reaches altitude 10° 22:10:58 10° 248° (WSW) 5,005 11.7 -73.0°
Enters shadow 22:12:10 13° 244° (WSW) 4,834 11.6 -73.3°
